Ramona, CA

7:06 AM PST on January 20, 2018 (GMT -0800)
Ramona

Weather History for KRNM - June, 2013

Change the Weather History Date:

Saturday, June 29, 2013

  Actual Average Record
Temperature  
Mean Temperature 81 °F 70 °F  
Max Temperature 101 °F 86 °F 102 °F (1974)
Min Temperature 60 °F 53 °F 45 °F (1975)
Degree Days  
Heating Degree Days 0 0  
Month to date heating degree days 2 26  
Since 1 June heating degree days 2 26  
Since 1 July heating degree days 2344 2550  
Cooling Degree Days 16 5  
Month to date cooling degree days 95 80  
Year to date cooling degree days 143 107  
Since 1 June cooling degree days 95 80  
Growing Degree Days 30 (Base 50)    
Moisture  
Dew Point 54 °F    
Average Humidity 47    
Maximum Humidity 72    
Minimum Humidity 22    
Precipitation  
Precipitation 0.00 in 0.00 in 0.01 in (2006)
Month to date precipitation 0.00 0.12  
Year to date precipitation 4.50 11.33  
Since 1 July precipitation 8.14  
Snow  
Snow 0.00 in - - ()
Month to date snowfall 0.0  
Year to date snowfall 0.0  
Snow Depth 0.00 in    
Sea Level Pressure  
Sea Level Pressure 29.80 in    
Wind  
Wind Speed 4 mph (NW)    
Max Wind Speed 13 mph    
Max Gust Speed 17 mph    
Visibility 10 miles    
Events      
T = Trace of Precipitation, MM = Missing Value Source: NWS Daily Summary

Daily Weather History Graph

Daily Weather History Graph

Search for Another Location

Airport or City:

Trip Planner

Search our weather history database for the weather conditions in past years. The results will help you decide how hot, cold, wet, or windy it might be!

Date:

Astronomy

Jun. 29, 2013 Rise Set
Actual Time 5:41 AM PDT 8:00 PM PDT
Civil Twilight 5:13 AM PDT 8:29 PM PDT
Nautical Twilight 4:38 AM PDT 9:04 PM PDT
Astronomical Twilight 3:59 AM PDT 9:42 PM PDT
Moon No Moon Rise 12:34 PM PDT (6/29)
Length of Visible Light 15h 15m
Length of Day
14h 18m
Waning Gibbous, 54% of the Moon is Illuminated
Jun 29
Waning Gibbous
Jun 29
Last Quarter
Jul 8
New
Jul 15
First Quarter
Jul 22
Full

Hourly Weather History & Observations

Time (PDT) Temp. Heat Index Dew Point Humidity Pressure Visibility Wind Dir Wind Speed Gust Speed Precip Events Conditions
12:53 AM 69.1 °F - 54.0 °F 58% 29.86 in 10.0 mi Calm Calm - N/A   Clear
1:53 AM 66.9 °F - 53.1 °F 61% 29.85 in 10.0 mi Calm Calm - N/A   Clear
2:53 AM 64.0 °F - 53.1 °F 67% 29.84 in 10.0 mi East 3.5 mph - N/A   Clear
3:53 AM 61.0 °F - 51.1 °F 70% 29.83 in 10.0 mi Calm Calm - N/A   Clear
4:53 AM 62.1 °F - 52.0 °F 70% 29.83 in 10.0 mi Calm Calm - N/A   Clear
5:53 AM 60.1 °F - 51.1 °F 72% 29.84 in 10.0 mi Calm Calm - N/A   Clear
6:53 AM 64.9 °F - 53.1 °F 65% 29.83 in 10.0 mi Calm Calm - N/A   Clear
7:53 AM 78.1 °F - 51.1 °F 39% 29.83 in 10.0 mi Calm Calm - N/A   Scattered Clouds
8:53 AM 87.1 °F - 48.9 °F 27% 29.82 in 10.0 mi Calm Calm - N/A   Clear
9:53 AM 89.1 °F 87.3 °F 55.9 °F 32% 29.82 in 10.0 mi WNW 11.5 mph - N/A   Clear
10:53 AM 89.1 °F 88.0 °F 57.9 °F 35% 29.83 in 10.0 mi NW 10.4 mph - N/A   Scattered Clouds
11:53 AM 95.0 °F 92.5 °F 53.1 °F 24% 29.83 in 10.0 mi NW 5.8 mph - N/A   Clear
12:53 PM 98.1 °F 96.4 °F 55.9 °F 24% 29.80 in 10.0 mi West 8.1 mph - N/A   Clear
1:53 PM 100.9 °F 99.6 °F 55.9 °F 22% 29.78 in 10.0 mi WNW 9.2 mph 16.1 mph N/A   Clear
2:53 PM 99.0 °F 96.5 °F 53.1 °F 21% 29.78 in 10.0 mi Variable 6.9 mph - N/A   Clear
3:53 PM 98.1 °F 96.4 °F 55.9 °F 24% 29.77 in 10.0 mi West 9.2 mph - N/A   Clear
4:53 PM 98.1 °F 96.4 °F 55.0 °F 24% 29.75 in 10.0 mi WNW 9.2 mph - N/A   Clear
5:53 PM 93.9 °F 92.9 °F 57.9 °F 30% 29.74 in 10.0 mi WNW 10.4 mph - N/A   Clear
6:53 PM 88.0 °F 87.1 °F 59.0 °F 37% 29.75 in 10.0 mi West 4.6 mph - N/A   Clear
7:53 PM 84.9 °F 84.2 °F 57.9 °F 40% 29.75 in 10.0 mi NW 3.5 mph - N/A   Clear
8:53 PM 79.0 °F - 57.0 °F 47% 29.76 in 10.0 mi Calm Calm - N/A   Clear
9:53 PM 75.9 °F - 55.0 °F 48% 29.76 in 10.0 mi Calm Calm - N/A   Clear
10:53 PM 73.9 °F - 55.9 °F 53% 29.76 in 10.0 mi Calm Calm - N/A   Clear
11:53 PM 71.1 °F - 55.0 °F 57% 29.75 in 10.0 mi ENE 3.5 mph - N/A   Clear